Regional Weather Roundup
Issued by NWS

Home | Current Version | Previous Version | Text Only | Print | Product List | Glossary On
Versions: 1 2 3 4 5 6 7 8 9 10 11 12 13 14 15 16 17 18 19 20 21 22 23 24 25 26 27 28 29 30 31 32 33 34 35 36 37 38 39 40 41 42 43 44 45 46 47 48 49 50
000
ASUS43 KDTX 072210
RWRMI
MICHIGAN HOURLY REGIONAL WEATHER ROUNDUP
NATIONAL WEATHER SERVICE DETROIT/PONTIAC MI
500 PM EST SUN FEB 07 2016

NOTE: "FAIR" INDICATES FEW OR NO CLOUDS BELOW 12,000 FEET WITH NO
SIGNIFICANT WEATHER AND/OR OBSTRUCTION TO VISIBILITY.

MIZ047>049-052>055-059>063-066>070-074>076-081>083-072300-
SOUTHEAST LOWER MICHIGAN

CITY           SKY/WX    TMP DP  RH WIND       PRES   REMARKS
ADRIAN         CLOUDY    46  30  53 SW15G23   29.76F
ALMA           CLOUDY    43  32  65 SW9G17    29.70R
ANN ARBOR      CLOUDY    46  28  49 SW16G23   29.75S
BAD AXE        PTCLDY    43  33  67 S13       29.71S
CARO           CLOUDY    46  28  50 S8        29.70S
DETROIT CITY   CLOUDY    48  29  47 S14G21    29.77F
DETROIT        CLOUDY    48  30  49 S16       29.77F
FLINT          CLOUDY    48  28  46 S12       29.72F
GROSSE ILE     CLOUDY    46  32  57 S13       29.77S
HILLSDALE      MOCLDY    44  29  56 SW9       29.74S
HOWELL         CLOUDY    46  30  55 S13       29.72R

CITY           SKY/WX    TMP DP  RH WIND       PRES   REMARKS
JACKSON        CLOUDY    46  27  47 S17G26    29.73R
LAMBERTVILLE   CLOUDY    48  30  49 SW8G16    29.78S
LANSING        CLOUDY    45  30  55 SW15      29.72R
LAPEER         CLOUDY    44  31  60 S13G18    29.73S
MASON          CLOUDY    45  30  55 SW9G22    29.72S
MONROE         CLOUDY    48  29  48 SW15G21   29.77S
MT. CLEMENS    CLOUDY    44  34  67 S14       29.75F
PONTIAC        CLOUDY    46  28  49 S10G24    29.73S
PORT HOPE        N/A     41  32  70 S12       29.69F
PORT HURON     CLOUDY    45  32  61 S8        29.77F
TRI CITIES     CLOUDY    45  30  55 SW10      29.70R
MIDLAND        CLOUDY    43  29  57 S12G20    29.69R
TROY           CLOUDY    49  28  44 S14G21    29.77S
SAGINAW HB     CLOUDY    45  32  61 S10G20    29.70S
$$
MIZ043>046-050>051-056>058-064>065-071>073-077>080-072300-
SOUTHWEST LOWER MICHIGAN

CITY           SKY/WX    TMP DP  RH WIND       PRES   REMARKS
BATTLE CREEK   CLOUDY    44  29  55 SW16      29.73R
BENTON HARBOR  CLOUDY    43  32  65 SW15G24   29.74S
BIG RAPIDS     CLOUDY    39  30  69 SW5       29.66S
COLDWATER      PTCLDY    45  29  54 SW13G20   29.74S
FREMONT        MOCLDY    38  32  77 SW13      29.67F WCI  30
HOLLAND        CLOUDY    42  31  64 SW18G24   29.72S
GRAND RAPIDS   CLOUDY    42  30  62 SW15      29.71S
IONIA          CLOUDY    42  31  64 SW10      29.70S
KALAMAZOO      CLOUDY    45  29  53 SW14      29.74R
LUDINGTON      MOCLDY    38  33  80 S15       29.66R WCI  30
MARSHALL       CLOUDY    45  29  54 SW12G21   29.73R
MOUNT PLEASANT CLOUDY    43  28  55 SW12G21   29.68S
MUSKEGON       CLOUDY    40  32  73 S12       29.69F WCI  33
SOUTH HAVEN    CLOUDY    42  32  66 SW12G25   29.72F
$$
MIZ016>042-072300-
NORTHERN LOWER MICHIGAN

CITY           SKY/WX    TMP DP  RH WIND       PRES   REMARKS
ALPENA         CLOUDY    39  29  67 S12       29.66S WCI  32
BEAVER ISLAND  CLOUDY    38  32  79 S7        29.61R WCI  33
BELLAIRE       CLOUDY    41  32  68 SW3       29.63R
CADILLAC       CLOUDY    37  31  77 S10       29.63R WCI  30
CHARLEVOIX     CLOUDY    41  31  69 S8        29.64R
FRANKFORT      CLOUDY    38  32  78 SW13G20   29.64R WCI  30
GAYLORD        CLOUDY    40  29  64 S10       29.61R WCI  33
GRAYLING       CLOUDY    41  29  62 SW9G20    29.63R
HARBOR SPRINGS CLOUDY    39  31  73 CALM      29.62R
HOUGHTON LAKE  CLOUDY    40  28  62 SW12      29.64R WCI  33
MANISTEE       CLOUDY    39  28  65 S9        29.65S WCI  33
OSCODA         PTCLDY    40  31  69 S7        29.68S
PELLSTON       CLOUDY    37  31  78 CALM      29.62R
ROGERS CITY    PTCLDY    38  30  72 SE7       29.65S WCI  33
TRAVERSE CITY  CLOUDY    41  30  65 SW8       29.63R
$$
MIZ007>008-015-072300-
EASTERN UPPER MICHIGAN

CITY           SKY/WX    TMP DP  RH WIND       PRES   REMARKS
KINROSS        CLOUDY    34  34 100 SE14      29.63R WCI  24
MACKINAC ISLAN CLOUDY    34  34 100 E9G17     29.62R FOG     WCI  26
NEWBERRY       CLOUDY    34  33  96 SE9       29.58R FOG     WCI  26
S. S. MARIE    CLOUDY    31  29  92 E7        29.64S WCI  24
MUNISING         N/A     36  31  82 S7        29.54R WCI  30
$$
MIZ004>006-011>014-085-072300-
CENTRAL UPPER MICHIGAN

CITY           SKY/WX    TMP DP  RH WIND       PRES   REMARKS
MANISTIQUE     CLOUDY    36  33  89 S8        29.57R WCI  29
ESCANABA       CLOUDY    37  32  81 S5        29.56R WCI  34
MENOMINEE      CLOUDY    39  28  65 W5        29.58R
SAWYER-GWINN   CLOUDY    32  30  93 S8        29.51S FOG     WCI  25
$$
MIZ001>003-009>011-084-072300-
WESTERN UPPER MICHIGAN

CITY           SKY/WX    TMP DP  RH WIND       PRES   REMARKS
IRON MOUNTAIN  CLOUDY    36  29  75 SW6       29.52R WCI  31
HOUGHTON       MIX PCPN  33  31  92 E3        29.48R VSB 1/2
COPPER HARBOR    N/A     33  33 100 CALM      29.51R
IRONWOOD       CLOUDY    34  34 100 SW10      29.46R WCI  26
$$

ABBREVIATIONS USED IN REMARKS
   TC - TEMPERATURE IN CELSIUS
  WCI - WIND CHILL INDEX
   HX - HEAT INDEX
  VSB - VISIBILITY




USA.gov is the U.S. government's official web portal to all federal, state and local government web resources and services.